Location: Balaclava NSW 2575, Australia
(34.4510°S, 150.4953°E)
Time: 17:46:09
(UTC+10:00)

Vanguard 1 Rocket - Visible Passes

Search period start: 15 June 2021 00:00
Search period end: 25 June 2021 00:00
Orbit: 651 x 4225 km, 34.3° (Epoch: 14 June)

Date Brightness Start Highest point End Pass type
(mag) Time Alt. Az. Time Alt. Az. Time Alt. Az.
15 Jun 12.5 05:17:23 10° NNE 05:20:35 10° NE 05:23:37 10° NE visible
16 Jun 12.1 06:20:14 10° N 06:37:25 25° NE 06:49:36 10° E visible
17 Jun 12.3 05:10:49 10° N 05:23:27 16° NE 05:33:54 10° ENE visible
18 Jun 11.8 06:20:03 10° NNW 06:40:07 33° NE 06:53:44 10° E visible
19 Jun 12.1 05:08:59 10° N 05:26:06 23° NE 05:39:34 10° E visible
20 Jun 12.2 04:02:05 10° NNE 04:11:59 13° NE 04:21:01 10° ENE visible
20 Jun 11.5 06:20:30 10° NNW 06:42:43 41° NNE 06:57:25 10° E visible
21 Jun 11.8 05:08:28 10° NNW 05:28:36 30° NE 05:44:02 10° E visible
22 Jun 12.1 03:58:58 10° N 04:14:27 20° NE 04:28:07 10° E visible
22 Jun 11.2 06:21:26 10° NW 06:45:13 49° NNE 07:00:48 10° E visible
23 Jun 11.6 05:08:43 10° NNW 05:30:57 37° NE 05:47:52 10° E visible
24 Jun 11.9 03:57:58 10° N 04:16:44 26° NE 04:33:08 10° E visible
24 Jun 11.0 06:22:45 10° NW 06:47:41 57° NNE 07:03:59 10° ESE visible
